Weather History for Bangkok (Suvarnabhumi), Thailand

Change the Weather History Date:

Thursday, December 12, 2013

  Actual Average (VTBD) Record (VTBD)
Temperature  
Mean Temperature 82 °F -  
Max Temperature 92 °F 89 °F 95 °F (2012)
Min Temperature 72 °F 69 °F 68 °F (2008)
Cooling Degree Days 17    
Growing Degree Days 32 (Base 50)    
Moisture  
Dew Point 65 °F    
Average Humidity 61    
Maximum Humidity 83    
Minimum Humidity 37    
Precipitation  
Precipitation 0.00 in 0.01 in - ()
Sea Level Pressure  
Sea Level Pressure 29.81 in    
Wind  
Wind Speed 5 mph ()    
Max Wind Speed 12 mph    
Max Gust Speed 17 mph    
Visibility 4.2 miles    
Events      
Averages and records for this station are not official NWS values.
T = Trace of Precipitation, MM = Missing Value Source: Averaged Metar Reports

Daily Weather History Graph

Daily Weather History Graph

Search for Another Location

Airport:

Trip Planner

Search our weather history database for the weather conditions in past years. The results will help you decide how hot, cold, wet, or windy it might be!

Date:

Astronomy

Dec. 12, 2013 Rise Set
Actual Time 6:29 AM ICT 5:50 PM ICT
Civil Twilight 6:06 AM ICT 6:13 PM ICT
Nautical Twilight 5:39 AM ICT 6:39 PM ICT
Astronomical Twilight 5:13 AM ICT 7:06 PM ICT
Moon 2:05 PM ICT (12/12) 1:58 AM ICT (12/12)
Length of Visible Light 12h 07m
Length of Day
11h 21m
Waxing Gibbous, 76% of the Moon is Illuminated
Dec 12
Waxing Gibbous
Dec 17
Full
Dec 25
Last Quarter
Jan 1
New
Jan 8
First Quarter

Hourly Weather History & Observations

Time (ICT) Temp. Heat Index Dew Point Humidity Pressure Visibility Wind Dir Wind Speed Gust Speed Precip Events Conditions
12:00 AM 77.0 °F - 64.4 °F 65% 29.83 in 3.1 mi NNE 3.5 mph - N/A   Mist
12:30 AM 77.0 °F - 66.2 °F 69% 29.83 in 3.1 mi NE 4.6 mph - N/A   Mist
1:00 AM 78 °F - 69 °F 68% 29.81 in 5 mi Calm Calm - -   Mist
1:00 AM 77.0 °F - 68.0 °F 74% 29.83 in 3.1 mi ENE 5.8 mph - N/A   Mist
1:30 AM 75.2 °F - 68.0 °F 78% 29.83 in 3.1 mi NE 5.8 mph 17.3 mph N/A   Mist
2:00 AM 75.2 °F - 68.0 °F 78% 29.80 in 3.1 mi NE 6.9 mph - N/A   Mist
2:30 AM 75.2 °F - 68.0 °F 78% 29.80 in 3.1 mi NE 5.8 mph - N/A   Mist
3:00 AM 75.2 °F - 66.2 °F 73% 29.80 in 3.1 mi NNE 3.5 mph - N/A   Mist
3:30 AM 75.2 °F - 66.2 °F 73% 29.80 in 3.1 mi NNE 4.6 mph - N/A   Mist
4:00 AM 75 °F - 68 °F 74% 29.78 in 5 mi NE 4.6 mph - -   Mist
4:00 AM 75.2 °F - 66.2 °F 73% 29.80 in 3.1 mi NNE 4.6 mph - N/A   Mist
4:30 AM 73.4 °F - 66.2 °F 78% 29.80 in 3.1 mi NNE 5.8 mph - N/A   Mist
5:00 AM 71.6 °F - 66.2 °F 83% 29.80 in 3.1 mi NNE 5.8 mph - N/A   Mist
5:30 AM 73.4 °F - 66.2 °F 78% 29.80 in 3.1 mi NE 3.5 mph - N/A   Mist
6:00 AM 73.4 °F - 66.2 °F 78% 29.80 in 3.1 mi ENE 4.6 mph - N/A   Mist
6:30 AM 73.4 °F - 66.2 °F 78% 29.83 in 3.1 mi ENE 4.6 mph - N/A   Mist
7:00 AM 73 °F - 68 °F 79% 29.82 in 5 mi Calm Calm - -   Mist
7:00 AM 73.4 °F - 66.2 °F 78% 29.83 in 3.1 mi ENE 4.6 mph - N/A   Mist
7:30 AM 75.2 °F - 68.0 °F 78% 29.86 in 3.1 mi ENE 5.8 mph - N/A   Mist
8:00 AM 77.0 °F - 66.2 °F 69% 29.86 in 3.7 mi ENE 8.1 mph - N/A   Unknown
8:30 AM 77.0 °F - 64.4 °F 65% 29.89 in 3.7 mi ENE 10.4 mph - N/A   Unknown
9:00 AM 78.8 °F - 64.4 °F 61% 29.89 in 4.3 mi ENE 9.2 mph - N/A   Unknown
9:30 AM 80.6 °F 81.8 °F 62.6 °F 54% 29.89 in 4.3 mi ENE 11.5 mph - N/A   Unknown
10:00 AM 82.4 °F 83.9 °F 64.4 °F 54% 29.89 in 4.3 mi ENE 8.1 mph - N/A   Unknown
10:30 AM 82.4 °F 83.9 °F 64.4 °F 54% 29.89 in 4.3 mi ENE 9.2 mph - N/A   Unknown
11:00 AM 84.2 °F 85.6 °F 64.4 °F 51% 29.86 in 5.0 mi ENE 8.1 mph - N/A   Unknown
11:30 AM 86.0 °F 86.6 °F 62.6 °F 45% 29.86 in 5.0 mi ENE 11.5 mph - N/A   Unknown
12:00 PM 86.0 °F 86.6 °F 62.6 °F 45% 29.83 in 5.0 mi East 8.1 mph - N/A   Unknown
12:30 PM 86.0 °F 86.6 °F 62.6 °F 45% 29.83 in 5.0 mi NE 9.2 mph - N/A   Unknown
1:00 PM 90 °F - 67 °F 37% 29.77 in 4 mi NE 5.8 mph - -   Haze
1:00 PM 87.8 °F 88.5 °F 62.6 °F 43% 29.80 in 5.0 mi NE 8.1 mph - N/A   Unknown
1:30 PM 87.8 °F 88.5 °F 62.6 °F 43% 29.80 in 5.0 mi ENE 9.2 mph - N/A   Unknown
2:00 PM 87.8 °F 88.5 °F 62.6 °F 43% 29.77 in 5.0 mi ENE 9.2 mph - N/A   Unknown
2:30 PM 87.8 °F 88.5 °F 62.6 °F 43% 29.77 in 5.0 mi ENE 9.2 mph - N/A   Scattered Clouds
3:00 PM 87.8 °F 88.5 °F 62.6 °F 43% 29.74 in 5.0 mi ENE 9.2 mph - N/A   Scattered Clouds
3:30 PM 89.6 °F 90.1 °F 62.6 °F 40% 29.74 in 5.6 mi ENE 8.1 mph - N/A   Scattered Clouds
4:00 PM 90 °F - 67 °F 37% 29.73 in 4 mi ENE 2.3 mph - -   Haze
4:00 PM 87.8 °F 88.5 °F 62.6 °F 43% 29.74 in 5.6 mi NE 8.1 mph - N/A   Scattered Clouds
4:30 PM 87.8 °F 89.4 °F 64.4 °F 46% 29.74 in 5.0 mi NNE 5.8 mph - N/A   Scattered Clouds
5:00 PM 86.0 °F 87.3 °F 64.4 °F 48% 29.77 in 5.0 mi NNE 5.8 mph - N/A   Unknown
5:30 PM 86.0 °F 87.3 °F 64.4 °F 48% 29.77 in 5.0 mi NNE 4.6 mph - N/A   Unknown
6:00 PM 84.2 °F 85.6 °F 64.4 °F 51% 29.77 in 5.0 mi North 4.6 mph - N/A   Unknown
6:30 PM 82.4 °F 83.9 °F 64.4 °F 54% 29.77 in 5.0 mi NNE 5.8 mph - N/A   Unknown
7:00 PM 84 °F - 69 °F 52% 29.77 in 4 mi Calm Calm - -   Haze
7:00 PM 82.4 °F 83.9 °F 64.4 °F 54% 29.80 in 5.0 mi NNE 4.6 mph - N/A   Unknown
7:30 PM 80.6 °F 82.3 °F 64.4 °F 58% 29.80 in 5.0 mi NNE 4.6 mph - N/A   Unknown
8:00 PM 80.6 °F 82.3 °F 64.4 °F 58% 29.80 in 5.0 mi North 5.8 mph - N/A   Unknown
8:30 PM 80.6 °F 82.3 °F 64.4 °F 58% 29.83 in 5.0 mi North 5.8 mph - N/A   Clear
9:00 PM 78.8 °F - 66.2 °F 65% 29.83 in 4.3 mi North 5.8 mph - N/A   Unknown
9:30 PM 78.8 °F - 66.2 °F 65% 29.80 in 4.3 mi NNE 4.6 mph - N/A   Unknown
10:00 PM 80 °F - 70 °F 64% 29.83 in 4 mi Calm Calm - -   Mist
10:00 PM 78.8 °F - 66.2 °F 65% 29.86 in 4.3 mi NNE 5.8 mph - N/A   Unknown
10:30 PM 78.8 °F - 66.2 °F 65% 29.86 in 4.3 mi NE 6.9 mph - N/A   Unknown
11:00 PM 78.8 °F - 68.0 °F 69% 29.86 in 4.3 mi ENE 6.9 mph - N/A   Scattered Clouds
11:30 PM 78.8 °F - 68.0 °F 69% 29.86 in 4.3 mi East 4.6 mph - N/A   Scattered Clouds